User: anonymous   Login
Location: Temecula
(33.4977°N, 117.1073°W)
Time: 04:48:23
(UTC-07:00)
Language:

ISS - Orbit

View from above orbital plane
View from above orbital plane
View from above satellite
View from above satellite

Ground track
Ground track

The orbit data is extracted from the following two-line orbital elements,

1 25544U 98067A   20273.00316723  .00016717  00000-0  10270-3 0  9047
2 25544  51.6434 194.7720 0001370 121.2594 238.8690 15.48803748  8103
Epoch (UTC): 29 September 2020 00:04:33
Eccentricity: 0.0001370
inclination: 51.6434°
perigee height: 419 km
apogee height: 421 km
right ascension of ascending node: 194.7720°
argument of perigee: 121.2594°
revolutions per day: 15.48803748
mean anomaly at epoch: 238.8690°
orbit number at epoch: 810

The dashed part of the orbit path shows where the satellite is in the earth's shadow,  

DLR